This is the latest recevied weather packets stored in our database for station/object KG7BDA. If no packets are shown the sender has not sent any weather packets the latest 10 day(s).
| Time | Temp. | Humidity | Pressure | Rain* | Wind** | Luminosity | Snow |
|---|---|---|---|---|---|---|---|
| 1778085923 | 15° C | 31% | 1020.8 hPa | 0 mm | - | - | - |
| 1778085563 | 14.44° C | 30% | 1020.9 hPa | 0 mm | - | - | - |
| 1778085203 | 14.44° C | 30% | 1020.9 hPa | 0 mm | - | - | - |
| 1778084842 | 14.44° C | 30% | 1020.8 hPa | 0 mm | - | - | - |
| 1778084483 | 13.89° C | 30% | 1020.8 hPa | 0 mm | - | - | - |
| 1778084123 | 13.89° C | 31% | 1020.9 hPa | 0 mm | - | - | - |
| 1778083762 | 13.33° C | 31% | 1020.9 hPa | 0 mm | - | - | - |
| 1778083403 | 13.33° C | 32% | 1020.9 hPa | 0 mm | - | - | - |
| 1778083043 | 13.33° C | 32% | 1021.1 hPa | 0 mm | - | - | - |
| 1778082682 | 13.33° C | 32% | 1021.1 hPa | 0 mm | - | - | - |
| 1778082322 | 12.78° C | 32% | 1020.9 hPa | 0 mm | - | - | - |
| 1778081962 | 12.78° C | 32% | 1020.9 hPa | 0 mm | - | - | - |
| 1778081603 | 12.78° C | 33% | 1020.9 hPa | 0 mm | - | - | - |
| 1778080882 | 12.22° C | 36% | 1020.8 hPa | 0 mm | - | - | - |
| 1778080522 | 12.22° C | 37% | 1020.6 hPa | 0 mm | - | - | - |
| 1778080163 | 11.67° C | 37% | 1020.5 hPa | 0 mm | - | - | - |
| 1778079802 | 11.67° C | 38% | 1020.6 hPa | 0 mm | - | - | - |
| 1778079442 | 11.67° C | 38% | 1020.4 hPa | 0 mm | - | - | - |
| 1778079081 | 11.11° C | 40% | 1020.4 hPa | 0 mm | - | - | - |
| 1778078722 | 11.11° C | 40% | 1020.5 hPa | 0 mm | - | - | - |
| 1778078361 | 10.56° C | 42% | 1020.4 hPa | 0 mm | - | - | - |
| 1778078002 | 10.56° C | 43% | 1020.5 hPa | 0 mm | - | - | - |
| 1778077643 | 10° C | 45% | 1020.5 hPa | 0 mm | - | - | - |
| 1778077282 | 10° C | 46% | 1020.4 hPa | 0 mm | - | - | - |
| 1778076923 | 9.44° C | 50% | 1020.3 hPa | 0 mm | - | - | - |
* Rain latest hour (hover to see other rain measurements)
** Current wind speed in m/s (hover to see current wind gust speed)